Menu:

  
Click to get your own widget

free counters


DXLite: Amateur Radio DX Cluster for Smartphone Users
K8HQ14270.0K0PONk-2233 (id) eagle island sp23:45Z
VR2UNG14074.0RA9Hft8 73 farid23:45Z
KI4WCQ14006.8KP2/DL5CW 23:45Z
WZ1V144250.0KD8UDfm17>fn3123:44Z
W2TT10137.1IK2ZEC 23:44Z
VE2GDR144225.0K1GUPfn25xm<tr>fn54lt ssb23:44Z
YB7HE14074.0UA9ZOtnx23:44Z
N8LGP7175.0AM70C 23:44Z
K6LR14205.0CT1EOD 23:44Z
WZ1V144250.0K3TSRfm17>fn3123:43Z
HP1AC7236.0HP3EMShp net23:43Z
JI1CPN50313.0T88FTft823:43Z
W8RES7010.0KP2Msolid cpy tu23:43Z
W2TT10137.1MM0YUM 23:43Z
YB7HE14074.0HK3Wtnx23:43Z
VE3HBZ14286.0SV9CVYtnx mike23:42Z
IV3BCM7074.0E73Bft823:41Z
W2TT10137.1HK2AQ 23:41Z
SM0UHA7029.4E79Q 23:40Z
WA5DTR14242.0W9IMSmotor speedway23:40Z
PY2MP7148.0WB2MHJ 23:40Z
ON4ADR7028.0W1KXtks qso dr bill23:40Z
W2TT10137.1DJ9IE 23:40Z
KE1JF7242.0W9IMSindy 500 special event23:39Z
KE5EE14240.0JE1LETtnx masa now looking dx na...23:39Z
KU8T7240.0N5JEWpota k-405323:39Z
KI4PS7012.0GS0NWMgood sig in va23:38Z
DG2JO3573.0GS0NWMtks for the ft8 qso 73!23:38Z
K3RN14005.7CO2AMEcw23:38Z
W2TT10137.1EI6KB 23:38Z
YB1AR7175.0AM70C5/923:38Z
KC0REL14242.0W9IMSindianapolis motor speedway sp23:37Z
HA3MK7010.0KP2Mtnx 73 hr !23:37Z
K8VOX7240.0N5JEWk-405323:37Z
WZ1V144225.0K1GUPfn54>fn3123:36Z
W2TT10137.1IK4LZH 23:36Z
VK6APZ3793.0K8UR 23:35Z
WB4HRL14286.0SV9CVY 23:34Z
R0CD14073.0T88TAtnx qso23:34Z
ZL1KEN14286.0SV9CVYcq cq23:33Z
PY2MP7192.0K4NYX 23:32Z
AA8CS7175.0AM70C 23:32Z
PP2CC144180.0PT2VHFmsk144 +11 db23:31Z
KW4WL7175.0AM70C59 ga23:31Z
YB7HE14074.0RC0CCtnx23:31Z
K8VOX14270.0K0PONpota k-2233 cor ref23:29Z
W2TT10137.0SP7QJF 23:29Z
M7KEV7175.0AM70C 23:29Z
VE7SV14007.0KP2/DL5CW 23:29Z
WB4HRL14007.3S57V 23:27Z

Options Skimmer version